When you browse on this site, cookies collect data to enhance your experience and personalize the content and advertising you see.
Visit our Privacy Policy to learn more. By continuing to use the site, you agree to this use of cookies and data.
  • In Austria
  • List of Countries
  • For 7 days
  • Water Temperature
  • Weather Map
  • News
  • Weather Widgets
  • user-avatar
    Login

    Hourly Weather Lyubovichi

    Today, 31 May, Sunday

    Time Temperature Precipitation Wind Pressure Humidity
    00:00 +13°C° 0 mm 5 mps 738 mmHg 95%
    01:00 +12°C° 0 mm 5 mps 739 mmHg 94%
    02:00 +11°C° 0 mm 4 mps 739 mmHg 94%
    03:00 +11°C° 0 mm 4 mps 740 mmHg 95%
    04:00 +11°C° 0 mm 4 mps 740 mmHg 95%
    05:00 +10°C° 0 mm 4 mps 740 mmHg 96%
    06:00 +11°C° 0 mm 4 mps 741 mmHg 93%
    07:00 +12°C° 0 mm 4 mps 741 mmHg 90%
    08:00 +13°C° 0 mm 4 mps 742 mmHg 88%
    09:00 +14°C° 0.2 mm 4 mps 742 mmHg 86%
    10:00 +14°C° 0.2 mm 4 mps 743 mmHg 84%
    11:00 +15°C° 0.2 mm 4 mps 743 mmHg 81%
    12:00 +17°C° 0.7 mm 4 mps 743 mmHg 79%
    13:00 +18°C° 0.7 mm 4 mps 744 mmHg 76%
    14:00 +19°C° 0.7 mm 4 mps 744 mmHg 74%
    15:00 +18°C° 0.9 mm 4 mps 744 mmHg 77%
    16:00 +17°C° 0.9 mm 5 mps 745 mmHg 80%
    17:00 +16°C° 0.9 mm 5 mps 745 mmHg 83%
    18:00 +15°C° 0.3 mm 6 mps 745 mmHg 85%
    19:00 +14°C° 0.3 mm 6 mps 746 mmHg 88%
    20:00 +13°C° 0.3 mm 6 mps 746 mmHg 91%
    21:00 +11°C° 0 mm 6 mps 747 mmHg 90%
    22:00 +10°C° 0 mm 5 mps 747 mmHg 89%
    23:00 +10°C° 0 mm 5 mps 747 mmHg 88%

    Tomorrow, 1 June, Monday

    Time Temperature Precipitation Wind Pressure Humidity
    00:00 +9°C° 0 mm 5 mps 748 mmHg 90%
    01:00 +8°C° 0 mm 4 mps 748 mmHg 91%
    02:00 +8°C° 0 mm 4 mps 748 mmHg 93%
    03:00 +7°C° 0 mm 4 mps 748 mmHg 91%
    04:00 +7°C° 0 mm 4 mps 748 mmHg 89%
    05:00 +7°C° 0 mm 5 mps 748 mmHg 87%
    06:00 +8°C° 0 mm 5 mps 749 mmHg 78%
    07:00 +9°C° 0 mm 6 mps 749 mmHg 69%
    08:00 +10°C° 0 mm 6 mps 750 mmHg 60%
    09:00 +11°C° 0 mm 6 mps 750 mmHg 58%
    10:00 +13°C° 0 mm 6 mps 750 mmHg 56%
    11:00 +13°C° 0 mm 6 mps 750 mmHg 53%
    12:00 +13°C° 0.1 mm 6 mps 750 mmHg 54%
    13:00 +13°C° 0.1 mm 6 mps 749 mmHg 55%
    14:00 +13°C° 0.1 mm 6 mps 749 mmHg 56%
    15:00 +13°C° 0.1 mm 6 mps 749 mmHg 57%
    16:00 +13°C° 0.1 mm 6 mps 749 mmHg 58%
    17:00 +13°C° 0.1 mm 6 mps 749 mmHg 59%
    18:00 +10°C° 0.1 mm 5 mps 749 mmHg 66%
    19:00 +10°C° 0.1 mm 4 mps 749 mmHg 74%
    20:00 +9°C° 0.1 mm 3 mps 749 mmHg 81%
    21:00 +8°C° 0 mm 3 mps 749 mmHg 84%
    22:00 +7°C° 0 mm 3 mps 749 mmHg 87%
    23:00 +7°C° 0 mm 3 mps 749 mmHg 90%

    Day after tomorrow, 2 June, Tuesday

    Time Temperature Precipitation Wind Pressure Humidity
    00:00 +7°C° 0 mm 3 mps 748 mmHg 90%
    01:00 +6°C° 0 mm 4 mps 748 mmHg 91%
    02:00 +6°C° 0 mm 4 mps 747 mmHg 91%
    03:00 +5°C° 0 mm 4 mps 747 mmHg 91%
    04:00 +5°C° 0 mm 4 mps 747 mmHg 91%
    05:00 +5°C° 0 mm 4 mps 746 mmHg 91%
    06:00 +6°C° 0 mm 5 mps 746 mmHg 87%
    07:00 +7°C° 0 mm 5 mps 746 mmHg 84%
    08:00 +8°C° 0 mm 6 mps 745 mmHg 80%
    09:00 +8°C° 0.6 mm 6 mps 745 mmHg 84%
    10:00 +7°C° 0.6 mm 6 mps 744 mmHg 89%
    11:00 +7°C° 0.6 mm 6 mps 744 mmHg 93%
    12:00 +7°C° 0.9 mm 6 mps 743 mmHg 93%
    13:00 +7°C° 0.9 mm 6 mps 743 mmHg 93%
    14:00 +7°C° 0.9 mm 6 mps 743 mmHg 93%
    15:00 +7°C° 0.6 mm 6 mps 742 mmHg 93%
    16:00 +7°C° 0.6 mm 6 mps 742 mmHg 93%
    17:00 +7°C° 0.6 mm 5 mps 742 mmHg 93%
    18:00 +7°C° 0.2 mm 5 mps 741 mmHg 94%
    19:00 +7°C° 0.2 mm 5 mps 741 mmHg 95%
    20:00 +7°C° 0.2 mm 4 mps 740 mmHg 96%
    21:00 +8°C° 0 mm 4 mps 740 mmHg 96%
    22:00 +9°C° 0 mm 3 mps 740 mmHg 97%
    23:00 +9°C° 0 mm 2 mps 740 mmHg 98%

    3 June, Wednesday

    Time Temperature Precipitation Wind Pressure Humidity
    00:00 +8°C° 0 mm 2 mps 739 mmHg 98%
    01:00 +8°C° 0 mm 3 mps 739 mmHg 97%
    02:00 +8°C° 0 mm 3 mps 739 mmHg 97%
    03:00 +7°C° 0 mm 3 mps 739 mmHg 97%
    04:00 +7°C° 0 mm 3 mps 739 mmHg 97%
    05:00 +7°C° 0 mm 3 mps 739 mmHg 97%
    06:00 +8°C° 0.1 mm 3 mps 739 mmHg 96%
    07:00 +9°C° 0.1 mm 3 mps 739 mmHg 94%
    08:00 +9°C° 0.1 mm 3 mps 739 mmHg 93%
    09:00 +10°C° 0.4 mm 3 mps 739 mmHg 91%
    10:00 +10°C° 0.4 mm 4 mps 740 mmHg 89%
    11:00 +11°C° 0.4 mm 4 mps 740 mmHg 88%
    12:00 +12°C° 0.6 mm 4 mps 740 mmHg 85%
    13:00 +13°C° 0.6 mm 4 mps 740 mmHg 82%
    14:00 +13°C° 0.6 mm 3 mps 739 mmHg 80%
    15:00 +14°C° 0.8 mm 3 mps 739 mmHg 80%
    16:00 +14°C° 0.8 mm 3 mps 739 mmHg 81%
    17:00 +14°C° 0.8 mm 3 mps 739 mmHg 82%
    18:00 +14°C° 0.6 mm 2 mps 739 mmHg 85%
    19:00 +12°C° 0.6 mm 2 mps 739 mmHg 89%
    20:00 +10°C° 0.6 mm 2 mps 739 mmHg 93%
    21:00 +10°C° 0 mm 1 mps 740 mmHg 94%
    22:00 +10°C° 0 mm 1 mps 740 mmHg 95%
    23:00 +9°C° 0 mm 1 mps 740 mmHg 96%

    4 June, Thursday

    Time Temperature Precipitation Wind Pressure Humidity
    00:00 +8°C° 0 mm 1 mps 740 mmHg 97%
    01:00 +8°C° 0 mm 1 mps 740 mmHg 97%
    02:00 +8°C° 0 mm 1 mps 741 mmHg 98%
    03:00 +8°C° 0.1 mm 1 mps 741 mmHg 98%
    04:00 +8°C° 0.1 mm 1 mps 741 mmHg 98%
    05:00 +7°C° 0.1 mm 2 mps 741 mmHg 99%
    06:00 +8°C° 0.2 mm 2 mps 741 mmHg 98%
    07:00 +9°C° 0.2 mm 2 mps 742 mmHg 97%
    08:00 +10°C° 0.2 mm 2 mps 742 mmHg 96%
    09:00 +10°C° 0.2 mm 2 mps 742 mmHg 95%
    10:00 +10°C° 0.2 mm 2 mps 742 mmHg 94%
    11:00 +12°C° 0.2 mm 2 mps 743 mmHg 93%
    12:00 +12°C° 0.5 mm 2 mps 743 mmHg 90%
    13:00 +13°C° 0.5 mm 2 mps 742 mmHg 86%
    14:00 +13°C° 0.5 mm 3 mps 742 mmHg 83%
    15:00 +15°C° 0.4 mm 2 mps 742 mmHg 81%
    16:00 +15°C° 0.4 mm 2 mps 742 mmHg 78%
    17:00 +15°C° 0.4 mm 2 mps 742 mmHg 76%
    18:00 +14°C° 0.1 mm 2 mps 742 mmHg 79%
    19:00 +14°C° 0.1 mm 2 mps 742 mmHg 82%
    20:00 +13°C° 0.1 mm 1 mps 742 mmHg 85%
    21:00 +12°C° 0 mm 1 mps 742 mmHg 88%
    22:00 +10°C° 0 mm 1 mps 742 mmHg 91%
    23:00 +8°C° 0 mm 2 mps 742 mmHg 94%

    5 June, Friday

    Time Temperature Precipitation Wind Pressure Humidity
    00:00 +8°C° 0 mm 2 mps 742 mmHg 95%
    01:00 +8°C° 0 mm 2 mps 742 mmHg 95%
    02:00 +7°C° 0 mm 2 mps 742 mmHg 96%
    03:00 +7°C° 0 mm 2 mps 742 mmHg 96%
    04:00 +7°C° 0 mm 2 mps 742 mmHg 96%
    05:00 +8°C° 0 mm 2 mps 742 mmHg 96%
    06:00 +10°C° 0 mm 2 mps 743 mmHg 91%
    07:00 +13°C° 0 mm 2 mps 743 mmHg 86%
    08:00 +15°C° 0 mm 2 mps 743 mmHg 81%
    09:00 +16°C° 0.3 mm 2 mps 743 mmHg 79%
    10:00 +17°C° 0.3 mm 3 mps 743 mmHg 77%
    11:00 +18°C° 0.3 mm 3 mps 743 mmHg 74%
    12:00 +19°C° 0.5 mm 3 mps 742 mmHg 72%
    13:00 +19°C° 0.5 mm 3 mps 742 mmHg 69%
    14:00 +20°C° 0.5 mm 3 mps 742 mmHg 66%
    15:00 +20°C° 0.2 mm 3 mps 742 mmHg 67%
    16:00 +20°C° 0.2 mm 3 mps 742 mmHg 68%
    17:00 +20°C° 0.2 mm 2 mps 742 mmHg 69%
    18:00 +18°C° 0.2 mm 2 mps 742 mmHg 75%
    19:00 +18°C° 0.2 mm 1 mps 742 mmHg 81%
    20:00 +15°C° 0.2 mm 1 mps 742 mmHg 87%
    21:00 +15°C° 0 mm 1 mps 743 mmHg 88%
    22:00 +14°C° 0 mm 1 mps 743 mmHg 90%
    23:00 +13°C° 0 mm 1 mps 743 mmHg 92%
    Show more